| time (UTC) | temp F | wind direction | speed MPH | gust MPH | rain 1hr in | rain 24hr in | rain mn in | humidity % | barometer mb |
| 20260507130010 | 55 | 112 | 7.0 | 12.0 | 0.00 | 0.00 | 0.00 | 56 | 1016.7 |
| 20260507125506 | 55 | 128 | 5.0 | 15.0 | 0.00 | 0.00 | 0.00 | 56 | 1016.7 |
| 20260507125007 | 55 | 133 | 7.0 | 15.0 | 0.00 | 0.00 | 0.00 | 55 | 1016.7 |
| 20260507124507 | 55 | 170 | 7.0 | 14.0 | 0.00 | 0.00 | 0.00 | 55 | 1016.7 |
| 20260507124007 | 55 | 160 | 8.0 | 13.0 | 0.00 | 0.00 | 0.00 | 55 | 1016.8 |
| 20260507123506 | 55 | 101 | 5.0 | 12.0 | 0.00 | 0.00 | 0.00 | 56 | 1016.7 |
| 20260507123010 | 55 | 123 | 6.0 | 12.0 | 0.00 | 0.00 | 0.00 | 56 | 1016.7 |
| 20260507122007 | 55 | 146 | 7.0 | 12.0 | 0.00 | 0.00 | 0.00 | 56 | 1016.7 |
| 20260507121506 | 55 | 131 | 7.0 | 12.0 | 0.00 | 0.00 | 0.00 | 55 | 1016.7 |
| 20260507120506 | 55 | 106 | 7.0 | 12.0 | 0.00 | 0.00 | 0.00 | 56 | 1016.6 |
| 20260507120010 | 55 | 96 | 6.0 | 12.0 | 0.00 | 0.00 | 0.00 | 56 | 1016.5 |
| 20260507115507 | 54 | 99 | 6.0 | 12.0 | 0.00 | 0.00 | 0.00 | 55 | 1016.5 |
| 20260507115006 | 54 | 140 | 5.0 | 10.0 | 0.00 | 0.00 | 0.00 | 56 | 1016.6 |
| 20260507113506 | 54 | 139 | 5.0 | 14.0 | 0.00 | 0.00 | 0.00 | 55 | 1016.6 |
| 20260507113010 | 54 | 131 | 9.0 | 14.0 | 0.00 | 0.00 | 0.00 | 55 | 1016.6 |
| 20260507112506 | 54 | 124 | 7.0 | 12.0 | 0.00 | 0.00 | 0.00 | 55 | 1016.5 |
| 20260507112007 | 54 | 121 | 6.0 | 13.0 | 0.00 | 0.00 | 0.00 | 55 | 1016.5 |
| 20260507111507 | 54 | 150 | 10.0 | 14.0 | 0.00 | 0.00 | 0.00 | 55 | 1016.5 |
| 20260507111007 | 54 | 141 | 6.0 | 12.0 | 0.00 | 0.00 | 0.00 | 55 | 1016.4 |
| 20260507110507 | 54 | 156 | 7.0 | 13.0 | 0.00 | 0.00 | 0.00 | 55 | 1016.5 |
| 20260507110010 | 54 | 149 | 9.0 | 16.0 | 0.00 | 0.00 | 0.00 | 55 | 1016.5 |
| 20260507105507 | 53 | 116 | 7.0 | 15.0 | 0.00 | 0.00 | 0.00 | 55 | 1016.6 |
| 20260507104006 | 53 | 135 | 9.0 | 15.0 | 0.00 | 0.00 | 0.00 | 54 | 1016.3 |
| 20260507103506 | 53 | 141 | 7.0 | 15.0 | 0.00 | 0.00 | 0.00 | 55 | 1016.4 |
| 20260507103011 | 53 | 161 | 5.0 | 9.0 | 0.00 | 0.00 | 0.00 | 55 | 1016.3 |
| 20260507102506 | 53 | 138 | 8.0 | 15.0 | 0.00 | 0.00 | 0.00 | 55 | 1016.3 |
| 20260507102007 | 53 | 104 | 6.0 | 12.0 | 0.00 | 0.00 | 0.00 | 55 | 1016.3 |
| 20260507101507 | 53 | 100 | 3.0 | 10.0 | 0.00 | 0.00 | 0.00 | 54 | 1016.4 |
| 20260507101007 | 53 | 129 | 5.0 | 10.0 | 0.00 | 0.00 | 0.00 | 54 | 1016.4 |
| 20260507100506 | 52 | 143 | 6.0 | 10.0 | 0.00 | 0.00 | 0.00 | 54 | 1016.3 |
| 20260507100010 | 52 | 138 | 7.0 | 12.0 | 0.00 | 0.00 | 0.00 | 54 | 1016.3 |
| 20260507095507 | 52 | 137 | 4.0 | 10.0 | 0.00 | 0.00 | 0.00 | 54 | 1016.1 |
| 20260507095006 | 52 | 144 | 7.0 | 12.0 | 0.00 | 0.00 | 0.00 | 54 | 1016.2 |
| 20260507094506 | 52 | 154 | 6.0 | 13.0 | 0.00 | 0.00 | 0.00 | 54 | 1016.1 |
| 20260507094007 | 52 | 146 | 7.0 | 15.0 | 0.00 | 0.00 | 0.00 | 53 | 1016.1 |
| 20260507092506 | 52 | 110 | 7.0 | 12.0 | 0.00 | 0.00 | 0.00 | 52 | 1016.0 |
| 20260507091506 | 52 | 112 | 5.0 | 10.0 | 0.00 | 0.00 | 0.00 | 52 | 1016.0 |
| 20260507091007 | 51 | 147 | 5.0 | 12.0 | 0.00 | 0.00 | 0.00 | 51 | 1016.0 |
| 20260507090507 | 51 | 171 | 6.0 | 9.0 | 0.00 | 0.00 | 0.00 | 51 | 1015.9 |
| 20260507090010 | 51 | 156 | 7.0 | 12.0 | 0.00 | 0.00 | 0.00 | 52 | 1016.0 |
| 20260507085506 | 51 | 119 | 4.0 | 12.0 | 0.00 | 0.00 | 0.00 | 52 | 1015.9 |
| 20260507084006 | 50 | 77 | 6.0 | 9.0 | 0.00 | 0.00 | 0.00 | 52 | 1016.2 |
| 20260507083506 | 50 | 90 | 4.0 | 9.0 | 0.00 | 0.00 | 0.00 | 51 | 1016.1 |
| 20260507081006 | 49 | 122 | 4.0 | 8.0 | 0.00 | 0.00 | 0.00 | 51 | 1015.8 |
| 20260507080506 | 49 | 87 | 5.0 | 8.0 | 0.00 | 0.00 | 0.00 | 50 | 1015.9 |
| 20260507080010 | 49 | 83 | 5.0 | 9.0 | 0.00 | 0.00 | 0.00 | 50 | 1015.7 |
| 20260507075507 | 48 | 106 | 5.0 | 12.0 | 0.00 | 0.00 | 0.00 | 51 | 1015.7 |
| 20260507074509 | 47 | 95 | 4.0 | 9.0 | 0.00 | 0.00 | 0.00 | 53 | 1015.6 |
| 20260507074008 | 47 | 86 | 5.0 | 9.0 | 0.00 | 0.00 | 0.00 | 53 | 1015.7 |
| 20260507073012 | 46 | 110 | 4.0 | 10.0 | 0.00 | 0.00 | 0.00 | 54 | 1015.6 |
| 20260507072509 | 45 | 105 | 5.0 | 9.0 | 0.00 | 0.00 | 0.00 | 55 | 1015.6 |
| 20260507072009 | 45 | 118 | 5.0 | 8.0 | 0.00 | 0.00 | 0.00 | 56 | 1015.6 |
| 20260507071509 | 45 | 134 | 4.0 | 7.0 | 0.00 | 0.00 | 0.00 | 57 | 1015.4 |
| 20260507071009 | 44 | 158 | 3.0 | 6.0 | 0.00 | 0.00 | 0.00 | 58 | 1015.4 |
| 20260507070509 | 44 | 153 | 2.0 | 5.0 | 0.00 | 0.00 | 0.00 | 58 | 1015.4 |
| 20260507070013 | 44 | 76 | 3.0 | 6.0 | 0.00 | 0.00 | 0.00 | 58 | 1015.5 |
| 20260507065508 | 43 | 97 | 2.0 | 5.0 | 0.00 | 0.00 | 0.00 | 58 | 1015.5 |
| 20260507065009 | 43 | 98 | 2.0 | 6.0 | 0.00 | 0.00 | 0.00 | 58 | 1015.5 |
| 20260507064508 | 43 | 59 | 3.0 | 6.0 | 0.00 | 0.00 | 0.00 | 58 | 1015.5 |
| 20260507064009 | 42 | 68 | 4.0 | 8.0 | 0.00 | 0.00 | 0.00 | 58 | 1015.5 |
| 20260507063508 | 42 | 59 | 3.0 | 6.0 | 0.00 | 0.00 | 0.00 | 59 | 1015.4 |
| 20260507063012 | 42 | 47 | 3.0 | 7.0 | 0.00 | 0.00 | 0.00 | 60 | 1015.3 |
| 20260507062508 | 42 | 63 | 3.0 | 7.0 | 0.00 | 0.00 | 0.00 | 60 | 1015.3 |
| 20260507061508 | 42 | 58 | 3.0 | 8.0 | 0.00 | 0.00 | 0.00 | 60 | 1015.3 |
| 20260507061009 | 41 | 13 | 5.0 | 10.0 | 0.00 | 0.00 | 0.00 | 61 | 1015.2 |
| 20260507060508 | 41 | 15 | 3.0 | 8.0 | 0.00 | 0.00 | 0.00 | 61 | 1015.2 |
| 20260507060012 | 41 | 41 | 2.0 | 6.0 | 0.00 | 0.00 | 0.00 | 61 | 1015.2 |
| 20260507054508 | 40 | 52 | 2.0 | 5.0 | 0.00 | 0.00 | 0.00 | 61 | 1015.0 |
| 20260507053508 | 40 | 59 | 2.0 | 3.0 | 0.00 | 0.00 | 0.00 | 61 | 1015.2 |
| 20260507053012 | 40 | 96 | 1.0 | 2.0 | 0.00 | 0.00 | 0.00 | 61 | 1015.2 |
| 20260507052508 | 40 | 317 | 2.0 | 2.0 | 0.00 | 0.00 | 0.00 | 61 | 1015.2 |
| 20260507052008 | 40 | 5 | 1.0 | 2.0 | 0.00 | 0.00 | 0.00 | 61 | 1015.1 |
| 20260507050508 | 40 | 335 | 1.0 | 2.0 | 0.00 | 0.00 | 0.00 | 60 | 1015.0 |
| 20260507050012 | 40 | 322 | 1.0 | 2.0 | 0.00 | 0.00 | 0.00 | 60 | 1014.9 |
| 20260507045509 | 40 | 6 | 1.0 | 2.0 | 0.00 | 0.00 | 0.00 | 60 | 1014.8 |
| 20260507045008 | 40 | 351 | 2.0 | 2.0 | 0.00 | 0.00 | 0.00 | 60 | 1014.9 |
| 20260507044508 | 40 | 332 | 1.0 | 2.0 | 0.00 | 0.00 | 0.00 | 60 | 1014.8 |
| 20260507044008 | 40 | 67 | 0.0 | 1.0 | 0.00 | 0.00 | 0.00 | 60 | 1014.7 |
| 20260507043508 | 40 | 76 | 0.0 | 1.0 | 0.00 | 0.00 | 0.00 | 60 | 1014.8 |
| 20260507043012 | 40 | 69 | 1.0 | 1.0 | 0.00 | 0.00 | 0.00 | 60 | 1014.9 |
| 20260507042508 | 40 | 348 | 0.0 | 1.0 | 0.00 | 0.00 | 0.00 | 60 | 1014.7 |
| 20260507042008 | 40 | 323 | 0.0 | 1.0 | 0.00 | 0.00 | 0.00 | 60 | 1014.5 |
| 20260507041008 | 40 | 96 | 1.0 | 1.0 | 0.00 | 0.00 | 0.00 | 60 | 1014.5 |
| 20260507040508 | 40 | 104 | 0.0 | 1.0 | 0.00 | 0.00 | 0.00 | 60 | 1014.3 |
| 20260507035509 | 41 | 40 | 1.0 | 2.0 | 0.00 | 0.00 | 0.00 | 60 | 1014.5 |
| 20260507035008 | 41 | 60 | 1.0 | 1.0 | 0.00 | 0.00 | 0.00 | 60 | 1014.4 |
| 20260507034508 | 41 | 75 | 0.0 | 1.0 | 0.00 | 0.00 | 0.00 | 60 | 1014.3 |
| 20260507034008 | 41 | 272 | 0.0 | 1.0 | 0.00 | 0.00 | 0.00 | 59 | 1014.2 |
| 20260507033508 | 41 | 91 | 1.0 | 2.0 | 0.00 | 0.00 | 0.00 | 59 | 1014.1 |
| 20260507033012 | 41 | 22 | 1.0 | 2.0 | 0.00 | 0.00 | 0.00 | 59 | 1014.2 |
| 20260507032008 | 41 | 359 | 1.0 | 3.0 | 0.00 | 0.00 | 0.00 | 59 | 1013.9 |
| 20260507031508 | 41 | 59 | 1.0 | 3.0 | 0.00 | 0.00 | 0.00 | 59 | 1014.1 |
| 20260507031008 | 42 | 323 | 0.0 | 1.0 | 0.00 | 0.00 | 0.00 | 59 | 1014.0 |
| 20260507030508 | 42 | 106 | 1.0 | 1.0 | 0.00 | 0.00 | 0.00 | 59 | 1013.9 |
| 20260507030012 | 42 | 316 | 1.0 | 2.0 | 0.00 | 0.00 | 0.00 | 59 | 1013.9 |
| 20260507025507 | 42 | 14 | 2.0 | 3.0 | 0.00 | 0.00 | 0.00 | 59 | 1013.9 |
| 20260507025008 | 42 | 9 | 3.0 | 7.0 | 0.00 | 0.00 | 0.00 | 59 | 1013.8 |
| 20260507024508 | 42 | 355 | 3.0 | 7.0 | 0.00 | 0.00 | 0.00 | 59 | 1013.8 |
| 20260507024008 | 42 | 17 | 5.0 | 8.0 | 0.00 | 0.00 | 0.00 | 59 | 1013.8 |
| 20260507023508 | 42 | 5 | 2.0 | 6.0 | 0.00 | 0.00 | 0.00 | 59 | 1013.8 |
| 20260507023011 | 42 | 3 | 2.0 | 6.0 | 0.00 | 0.00 | 0.00 | 59 | 1013.7 |
| 20260507022508 | 42 | 350 | 2.0 | 6.0 | 0.00 | 0.00 | 0.00 | 59 | 1013.7 |
| 20260507022008 | 42 | 358 | 2.0 | 6.0 | 0.00 | 0.00 | 0.00 | 59 | 1013.8 |
| 20260507021508 | 42 | 0 | 3.0 | 6.0 | 0.00 | 0.00 | 0.00 | 59 | 1013.5 |
| 20260507021008 | 42 | 0 | 3.0 | 7.0 | 0.00 | 0.00 | 0.00 | 59 | 1013.6 |
| 20260507020508 | 42 | 26 | 3.0 | 8.0 | 0.00 | 0.00 | 0.00 | 59 | 1013.5 |
| 20260507020011 | 42 | 347 | 2.0 | 7.0 | 0.00 | 0.00 | 0.00 | 58 | 1013.5 |
| 20260507015508 | 42 | 358 | 2.0 | 7.0 | 0.00 | 0.00 | 0.00 | 58 | 1013.6 |
| 20260507015008 | 42 | 16 | 4.0 | 7.0 | 0.00 | 0.00 | 0.00 | 58 | 1013.6 |
| 20260507014508 | 42 | 9 | 3.0 | 6.0 | 0.00 | 0.00 | 0.00 | 58 | 1013.6 |
| 20260507013508 | 43 | 1 | 2.0 | 3.0 | 0.00 | 0.00 | 0.00 | 58 | 1013.5 |
| 20260507012507 | 43 | 6 | 1.0 | 5.0 | 0.00 | 0.00 | 0.00 | 58 | 1013.4 |
| 20260507012007 | 43 | 333 | 3.0 | 5.0 | 0.00 | 0.00 | 0.00 | 58 | 1013.5 |
| 20260507011508 | 43 | 330 | 1.0 | 5.0 | 0.00 | 0.00 | 0.00 | 58 | 1013.3 |
| 20260507011008 | 43 | 325 | 3.0 | 6.0 | 0.00 | 0.00 | 0.00 | 58 | 1013.3 |
| 20260507010507 | 43 | 319 | 3.0 | 5.0 | 0.00 | 0.00 | 0.00 | 58 | 1013.3 |
| 20260507010012 | 43 | 336 | 2.0 | 6.0 | 0.00 | 0.00 | 0.00 | 58 | 1013.3 |
| 20260507005508 | 43 | 339 | 3.0 | 6.0 | 0.00 | 0.00 | 0.00 | 58 | 1013.2 |
| 20260507004508 | 43 | 148 | 1.0 | 2.0 | 0.00 | 0.00 | 0.00 | 57 | 1013.2 |
| 20260507004008 | 44 | 22 | 2.0 | 7.0 | 0.00 | 0.00 | 0.00 | 57 | 1013.2 |
| 20260507003508 | 44 | 1 | 2.0 | 7.0 | 0.00 | 0.00 | 0.00 | 57 | 1013.2 |
| 20260507003012 | 44 | 322 | 2.0 | 7.0 | 0.00 | 0.00 | 0.00 | 57 | 1013.2 |
| 20260507002507 | 44 | 346 | 2.0 | 6.0 | 0.00 | 0.00 | 0.00 | 57 | 1013.2 |
| 20260507002008 | 44 | 349 | 2.0 | 6.0 | 0.00 | 0.00 | 0.00 | 57 | 1013.1 |
| 20260507001508 | 44 | 350 | 2.0 | 5.0 | 0.00 | 0.00 | 0.00 | 57 | 1013.1 |
| 20260507001007 | 44 | 9 | 2.0 | 5.0 | 0.00 | 0.00 | 0.00 | 57 | 1013.2 |
| 20260507000508 | 44 | 29 | 2.0 | 5.0 | 0.00 | 0.00 | 0.00 | 57 | 1013.2 |
| 20260507000011 | 44 | 2 | 3.0 | 5.0 | 0.00 | 0.00 | 0.00 | 57 | 1013.2 |
| 20260506235508 | 44 | 19 | 2.0 | 5.0 | 0.00 | 0.00 | 0.00 | 56 | 1013.0 |
| 20260506235008 | 44 | 60 | 2.0 | 5.0 | 0.00 | 0.00 | 0.00 | 56 | 1013.1 |
| 20260506234508 | 44 | 44 | 3.0 | 7.0 | 0.00 | 0.00 | 0.00 | 56 | 1013.1 |
| 20260506234008 | 44 | 36 | 2.0 | 5.0 | 0.00 | 0.00 | 0.00 | 56 | 1013.1 |
| 20260506233508 | 44 | 43 | 2.0 | 5.0 | 0.00 | 0.00 | 0.00 | 56 | 1013.2 |
| 20260506233011 | 44 | 20 | 3.0 | 8.0 | 0.00 | 0.00 | 0.00 | 56 | 1013.1 |
| 20260506232508 | 44 | 35 | 4.0 | 8.0 | 0.00 | 0.00 | 0.00 | 56 | 1013.1 |
| 20260506232008 | 44 | 26 | 6.0 | 9.0 | 0.00 | 0.00 | 0.00 | 56 | 1013.0 |
| 20260506231507 | 44 | 46 | 6.0 | 9.0 | 0.00 | 0.00 | 0.00 | 56 | 1013.0 |
| 20260506230507 | 44 | 63 | 4.0 | 10.0 | 0.00 | 0.00 | 0.00 | 55 | 1012.9 |
| 20260506230011 | 44 | 44 | 4.0 | 9.0 | 0.00 | 0.00 | 0.00 | 55 | 1012.9 |
| 20260506225508 | 44 | 64 | 7.0 | 12.0 | 0.00 | 0.00 | 0.00 | 55 | 1012.8 |
| 20260506225007 | 44 | 73 | 4.0 | 8.0 | 0.00 | 0.00 | 0.00 | 55 | 1012.7 |
| 20260506224507 | 45 | 63 | 3.0 | 8.0 | 0.00 | 0.00 | 0.00 | 55 | 1012.7 |
| 20260506224008 | 45 | 56 | 3.0 | 9.0 | 0.00 | 0.00 | 0.00 | 55 | 1012.6 |
| 20260506223508 | 45 | 48 | 6.0 | 10.0 | 0.00 | 0.00 | 0.00 | 55 | 1012.7 |
| 20260506223012 | 45 | 66 | 3.0 | 9.0 | 0.00 | 0.00 | 0.00 | 54 | 1012.7 |
| 20260506222507 | 45 | 43 | 4.0 | 9.0 | 0.00 | 0.00 | 0.00 | 55 | 1012.6 |
| 20260506222007 | 45 | 24 | 4.0 | 13.0 | 0.00 | 0.00 | 0.00 | 55 | 1012.7 |
| 20260506221007 | 45 | 71 | 3.0 | 7.0 | 0.00 | 0.00 | 0.00 | 55 | 1012.6 |
| 20260506220507 | 45 | 35 | 5.0 | 12.0 | 0.00 | 0.00 | 0.00 | 55 | 1012.6 |
| 20260506220011 | 45 | 48 | 5.0 | 9.0 | 0.00 | 0.00 | 0.00 | 55 | 1012.5 |
| 20260506215507 | 45 | 21 | 5.0 | 12.0 | 0.00 | 0.00 | 0.00 | 55 | 1012.5 |
| 20260506215007 | 46 | 51 | 2.0 | 13.0 | 0.00 | 0.00 | 0.00 | 55 | 1012.6 |
| 20260506214508 | 46 | 44 | 3.0 | 13.0 | 0.00 | 0.00 | 0.00 | 55 | 1012.5 |
| 20260506213508 | 46 | 24 | 4.0 | 12.0 | 0.00 | 0.00 | 0.00 | 55 | 1012.6 |
| 20260506213011 | 46 | 30 | 4.0 | 10.0 | 0.00 | 0.00 | 0.00 | 55 | 1012.4 |
| 20260506212507 | 46 | 25 | 3.0 | 9.0 | 0.00 | 0.00 | 0.00 | 55 | 1012.2 |
| 20260506212007 | 46 | 15 | 3.0 | 10.0 | 0.00 | 0.00 | 0.00 | 56 | 1012.5 |
| 20260506211008 | 46 | 328 | 2.0 | 7.0 | 0.00 | 0.00 | 0.00 | 56 | 1012.3 |
| 20260506210507 | 47 | 37 | 3.0 | 6.0 | 0.00 | 0.00 | 0.00 | 56 | 1012.3 |
| 20260506210011 | 47 | 44 | 3.0 | 7.0 | 0.00 | 0.00 | 0.00 | 55 | 1012.1 |
| 20260506205507 | 47 | 33 | 3.0 | 6.0 | 0.00 | 0.00 | 0.00 | 55 | 1012.2 |
| 20260506205007 | 47 | 28 | 3.0 | 7.0 | 0.00 | 0.00 | 0.00 | 55 | 1012.2 |
| 20260506204507 | 47 | 26 | 3.0 | 7.0 | 0.00 | 0.00 | 0.00 | 55 | 1012.3 |
| 20260506204008 | 47 | 27 | 3.0 | 8.0 | 0.00 | 0.00 | 0.00 | 54 | 1012.2 |
| 20260506203011 | 47 | 27 | 4.0 | 8.0 | 0.00 | 0.00 | 0.00 | 54 | 1012.1 |
| 20260506202507 | 47 | 29 | 5.0 | 12.0 | 0.00 | 0.00 | 0.00 | 54 | 1012.1 |
| 20260506202007 | 47 | 20 | 3.0 | 9.0 | 0.00 | 0.00 | 0.00 | 54 | 1012.0 |
| 20260506201507 | 47 | 5 | 5.0 | 14.0 | 0.00 | 0.00 | 0.00 | 55 | 1012.0 |
| 20260506200507 | 47 | 30 | 5.0 | 9.0 | 0.00 | 0.00 | 0.00 | 55 | 1012.1 |
| 20260506200011 | 47 | 33 | 3.0 | 10.0 | 0.00 | 0.00 | 0.00 | 55 | 1012.0 |
| 20260506195508 | 47 | 14 | 6.0 | 12.0 | 0.00 | 0.00 | 0.00 | 55 | 1012.0 |
| 20260506195007 | 47 | 27 | 3.0 | 8.0 | 0.00 | 0.00 | 0.00 | 56 | 1011.9 |
| 20260506194008 | 48 | 354 | 4.0 | 10.0 | 0.00 | 0.00 | 0.00 | 58 | 1011.7 |
| 20260506192507 | 47 | 323 | 1.0 | 7.0 | 0.00 | 0.00 | 0.00 | 58 | 1011.6 |
| 20260506192007 | 47 | 324 | 5.0 | 10.0 | 0.00 | 0.00 | 0.00 | 58 | 1011.5 |
| 20260506191507 | 48 | 311 | 7.0 | 12.0 | 0.00 | 0.00 | 0.00 | 58 | 1011.4 |
| 20260506191007 | 48 | 309 | 9.0 | 12.0 | 0.00 | 0.00 | 0.00 | 58 | 1011.5 |
| 20260506190507 | 48 | 308 | 8.0 | 13.0 | 0.00 | 0.00 | 0.00 | 58 | 1011.5 |
| 20260506190011 | 48 | 308 | 7.0 | 10.0 | 0.00 | 0.00 | 0.00 | 58 | 1011.4 |
| 20260506185507 | 48 | 306 | 8.0 | 13.0 | 0.00 | 0.00 | 0.00 | 57 | 1011.3 |
| 20260506185007 | 48 | 308 | 8.0 | 12.0 | 0.00 | 0.00 | 0.00 | 57 | 1011.4 |
| 20260506184507 | 48 | 302 | 8.0 | 14.0 | 0.00 | 0.00 | 0.00 | 56 | 1011.4 |
| 20260506184007 | 48 | 303 | 10.0 | 14.0 | 0.00 | 0.00 | 0.00 | 56 | 1011.3 |
| 20260506183011 | 48 | 308 | 10.0 | 15.0 | 0.00 | 0.00 | 0.00 | 56 | 1011.2 |
| 20260506182507 | 48 | 300 | 11.0 | 15.0 | 0.00 | 0.00 | 0.00 | 56 | 1011.1 |
| 20260506182007 | 49 | 301 | 10.0 | 15.0 | 0.00 | 0.00 | 0.00 | 56 | 1011.1 |
| 20260506181507 | 49 | 303 | 11.0 | 17.0 | 0.00 | 0.00 | 0.00 | 56 | 1011.1 |
| 20260506180011 | 49 | 301 | 12.0 | 17.0 | 0.00 | 0.00 | 0.00 | 57 | 1011.0 |
| 20260506175507 | 49 | 310 | 12.0 | 17.0 | 0.00 | 0.00 | 0.00 | 57 | 1011.0 |
| 20260506175007 | 49 | 307 | 12.0 | 18.0 | 0.00 | 0.00 | 0.00 | 57 | 1011.0 |
| 20260506174507 | 49 | 311 | 11.0 | 18.0 | 0.00 | 0.00 | 0.00 | 57 | 1011.0 |
| 20260506174007 | 49 | 304 | 14.0 | 21.0 | 0.00 | 0.00 | 0.00 | 57 | 1010.9 |
| 20260506173507 | 49 | 303 | 12.0 | 17.0 | 0.00 | 0.00 | 0.00 | 57 | 1011.0 |
| 20260506173011 | 49 | 305 | 13.0 | 21.0 | 0.00 | 0.00 | 0.00 | 58 | 1011.0 |
| 20260506172507 | 49 | 307 | 13.0 | 21.0 | 0.00 | 0.00 | 0.00 | 58 | 1010.9 |
| 20260506172007 | 49 | 298 | 14.0 | 21.0 | 0.00 | 0.00 | 0.00 | 58 | 1010.8 |
| 20260506171507 | 49 | 305 | 16.0 | 25.0 | 0.00 | 0.00 | 0.00 | 58 | 1010.8 |
| 20260506171007 | 49 | 304 | 15.0 | 25.0 | 0.00 | 0.00 | 0.00 | 59 | 1010.8 |
| 20260506170507 | 49 | 294 | 17.0 | 28.0 | 0.00 | 0.00 | 0.00 | 59 | 1010.7 |
| 20260506170011 | 49 | 299 | 16.0 | 26.0 | 0.00 | 0.00 | 0.00 | 59 | 1010.8 |
| 20260506165507 | 49 | 302 | 17.0 | 25.0 | 0.00 | 0.00 | 0.00 | 59 | 1010.8 |
| 20260506164007 | 49 | 296 | 19.0 | 28.0 | 0.00 | 0.00 | 0.00 | 59 | 1010.9 |
| 20260506163507 | 49 | 298 | 18.0 | 24.0 | 0.00 | 0.00 | 0.00 | 59 | 1011.0 |
| 20260506163011 | 49 | 300 | 18.0 | 25.0 | 0.00 | 0.00 | 0.00 | 59 | 1011.0 |
| 20260506162507 | 49 | 299 | 18.0 | 25.0 | 0.00 | 0.00 | 0.00 | 59 | 1011.0 |
| 20260506161507 | 49 | 304 | 20.0 | 28.0 | 0.00 | 0.00 | 0.00 | 59 | 1011.0 |
| 20260506161007 | 49 | 294 | 20.0 | 29.0 | 0.00 | 0.00 | 0.00 | 59 | 1011.0 |
| 20260506160507 | 49 | 307 | 17.0 | 31.0 | 0.00 | 0.00 | 0.00 | 59 | 1011.0 |
| 20260506160010 | 49 | 304 | 20.0 | 30.0 | 0.00 | 0.00 | 0.00 | 59 | 1011.1 |
| 20260506155507 | 49 | 298 | 20.0 | 26.0 | 0.00 | 0.00 | 0.00 | 60 | 1010.9 |
| 20260506155007 | 50 | 301 | 22.0 | 26.0 | 0.00 | 0.00 | 0.00 | 60 | 1011.1 |
| 20260506154007 | 50 | 299 | 18.0 | 26.0 | 0.00 | 0.00 | 0.00 | 60 | 1011.0 |
| 20260506153507 | 50 | 298 | 20.0 | 29.0 | 0.00 | 0.00 | 0.00 | 60 | 1011.1 |
| 20260506153011 | 50 | 300 | 18.0 | 28.0 | 0.00 | 0.00 | 0.00 | 59 | 1011.0 |
| 20260506152507 | 50 | 302 | 18.0 | 25.0 | 0.00 | 0.00 | 0.00 | 61 | 1011.0 |
| 20260506152007 | 50 | 293 | 19.0 | 25.0 | 0.00 | 0.00 | 0.00 | 60 | 1010.9 |
| 20260506151507 | 50 | 303 | 18.0 | 28.0 | 0.00 | 0.00 | 0.00 | 61 | 1011.1 |
| 20260506151006 | 50 | 299 | 20.0 | 26.0 | 0.00 | 0.00 | 0.00 | 61 | 1011.0 |
| 20260506150506 | 50 | 300 | 17.0 | 23.0 | 0.00 | 0.00 | 0.00 | 62 | 1011.1 |
| 20260506150010 | 50 | 290 | 17.0 | 24.0 | 0.00 | 0.00 | 0.00 | 62 | 1011.0 |
| 20260506145506 | 50 | 283 | 15.0 | 23.0 | 0.00 | 0.00 | 0.00 | 63 | 1011.1 |
| 20260506144507 | 50 | 284 | 14.0 | 25.0 | 0.00 | 0.00 | 0.00 | 63 | 1011.2 |
| 20260506144007 | 50 | 284 | 16.0 | 28.0 | 0.00 | 0.00 | 0.00 | 63 | 1011.2 |
| 20260506143506 | 50 | 282 | 14.0 | 23.0 | 0.00 | 0.00 | 0.00 | 62 | 1011.2 |
| 20260506143011 | 50 | 287 | 17.0 | 23.0 | 0.00 | 0.00 | 0.00 | 62 | 1011.3 |
| 20260506142507 | 50 | 289 | 17.0 | 24.0 | 0.00 | 0.00 | 0.00 | 62 | 1011.3 |
| 20260506142007 | 50 | 288 | 16.0 | 25.0 | 0.00 | 0.00 | 0.00 | 62 | 1011.4 |
| 20260506141506 | 51 | 280 | 16.0 | 26.0 | 0.00 | 0.00 | 0.00 | 62 | 1011.3 |
| 20260506141007 | 51 | 293 | 20.0 | 26.0 | 0.00 | 0.00 | 0.00 | 62 | 1011.3 |
| 20260506140507 | 51 | 291 | 18.0 | 25.0 | 0.00 | 0.00 | 0.00 | 63 | 1011.4 |
| 20260506140010 | 50 | 284 | 14.0 | 23.0 | 0.00 | 0.00 | 0.00 | 63 | 1011.5 |
| 20260506135506 | 50 | 296 | 16.0 | 25.0 | 0.00 | 0.00 | 0.00 | 64 | 1011.5 |
| 20260506135007 | 50 | 280 | 14.0 | 23.0 | 0.00 | 0.00 | 0.00 | 64 | 1011.4 |
| 20260506134507 | 50 | 281 | 15.0 | 25.0 | 0.00 | 0.00 | 0.00 | 64 | 1011.5 |
| 20260506133506 | 50 | 271 | 15.0 | 23.0 | 0.00 | 0.00 | 0.00 | 65 | 1011.5 |
| 20260506133011 | 50 | 271 | 16.0 | 28.0 | 0.00 | 0.00 | 0.00 | 65 | 1011.5 |
| 20260506132006 | 50 | 267 | 16.0 | 23.0 | 0.00 | 0.00 | 0.00 | 65 | 1011.6 |
| 20260506131006 | 50 | 264 | 16.0 | 23.0 | 0.00 | 0.00 | 0.00 | 65 | 1011.7 |